{"data":{"norad_id":58469,"intl_designator":"2023-185H","name":"ION SCV-015","alt_names":[],"object_type":"PAYLOAD","status":"ACTIVE","operator":null,"country":"IT","launch_date":"2023-12-01","launch_site_code":"AFWTR","launch_vehicle":null,"mission":null,"orbit_class":"UNKNOWN","rcs_meters":null,"size_class":null,"mass_kg":null,"dimensions":null,"purposes":[],"wikipedia_slug":null,"has_3d_model":false,"image_url":null,"decayed_at":null,"tle_current":{"epoch":"2026-09-21T23:07:21.303264Z","epoch_age_seconds":118633,"freshness":"FRESH","line1":"1 58469U 23185H   26264.96344101  .00004855  00000+0  14943-3 0  9994","line2":"2 58469  97.5741 356.1120 0010424 113.3717 246.8623 15.34100355155918","mean_motion":15.34100355,"eccentricity":0.0010424,"inclination_deg":97.5741,"raan_deg":356.112,"arg_perigee_deg":113.3717,"mean_anomaly_deg":246.8623,"bstar":0.00014943,"rev_number":15591,"period_min":93.86608870187,"perigee_km":456.46217286741,"apogee_km":470.72581364215,"semimajor_km":6841.7309932548,"source":"CELESTRAK","updated_at":"2026-09-22T09:00:26.669315Z"}}}